QPF
0.01 0.00 0.01 0.01 0.01 0.01 0.01 0.01 0.01 0.01 0.01 0.02 0.02 0.02 0.03 0.03 0.04 0.04 0.04 0.05 0.06 0.06 0.05 0.06 0.05 0.05 0.05 0.05 0.05 0.05 0.05 0.07 0.06 0.04 0.04 0.05 0.05 0.05 0.04 0.02 0.01 0.01 0.01
0.01 0.00 0.01 0.01 0.01 0.01 0.01 0.01 0.01 0.01 0.01 0.01 0.01 0.01 0.02 0.03 0.04 0.04 0.04 0.06 0.08 0.08 0.07 0.07 0.07 0.07 0.06 0.06 0.05 0.05 0.05 0.07 0.07 0.07 0.06 0.06 0.07 0.07 0.05 0.04 0.02 0.01 0.01
0.01 0.01 0.00 0.01 0.01 0.01 0.01 0.01 0.02 0.03 0.02 0.01 0.01 0.01 0.02 0.02 0.03 0.03 0.05 0.06 0.07 0.07 0.08 0.08 0.07 0.08 0.07 0.06 0.06 0.06 0.05 0.06 0.07 0.07 0.06 0.08 0.06 0.06 0.06 0.04 0.03 0.04 0.02
0.01 0.01 0.01 0.01 0.01 0.01 0.01 0.01 0.02 0.02 0.03 0.02 0.02 0.02 0.02 0.02 0.01 0.02 0.04 0.05 0.06 0.06 0.08 0.08 0.07 0.08 0.07 0.07 0.07 0.07 0.06 0.06 0.06 0.06 0.06 0.07 0.06 0.06 0.06 0.06 0.05 0.05 0.03
0.01 0.01 0.02 0.02 0.01 0.01 0.01 0.01 0.01 0.01 0.02 0.02 0.02 0.02 0.02 0.02 0.01 0.02 0.03 0.03 0.05 0.06 0.07 0.08 0.08 0.08 0.08 0.08 0.06 0.06 0.06 0.05 0.05 0.06 0.06 0.06 0.06 0.07 0.05 0.06 0.07 0.07 0.06
0.01 0.02 0.03 0.03 0.01 0.02 0.01 0.01 0.01 0.01 0.02 0.02 0.02 0.02 0.02 0.01 0.02 0.02 0.01 0.02 0.02 0.03 0.04 0.06 0.07 0.07 0.08 0.08 0.07 0.06 0.06 0.06 0.06 0.07 0.07 0.06 0.07 0.06 0.07 0.08 0.09 0.08 0.07
0.01 0.02 0.04 0.03 0.03 0.02 0.02 0.01 0.01 0.01 0.01 0.02 0.02 0.02 0.02 0.02 0.01 0.01 0.01 0.02 0.02 0.02 0.03 0.04 0.04 0.06 0.09 0.10 0.10 0.10 0.07 0.06 0.06 0.08 0.08 0.07 0.07 0.07 0.09 0.08 0.08 0.08 0.07
0.03 0.05 0.05 0.03 0.02 0.02 0.02 0.02 0.02 0.01 0.01 0.02 0.02 0.02 0.02 0.02 0.01 0.01 0.01 0.02 0.02 0.02 0.02 0.03 0.04 0.04 0.06 0.08 0.09 0.09 0.08 0.07 0.06 0.05 0.06 0.06 0.06 0.07 0.07 0.08 0.08 0.08 0.08
0.05 0.08 0.07 0.03 0.02 0.02 0.01 0.02 0.02 0.02 0.02 0.03 0.02 0.02 0.02 0.02 0.01 0.01 0.01 0.01 0.03 0.04 0.03 0.03 0.04 0.05 0.07 0.09 0.09 0.09 0.09 0.09 0.09 0.08 0.07 0.06 0.06 0.06 0.05 0.06 0.06 0.06 0.05
0.02 0.02 0.02 0.01 0.02 0.02 0.01 0.02 0.02 0.02 0.03 0.03 0.02 0.01 0.02 0.02 0.02 0.00 0.01 0.01 0.03 0.03 0.03 0.03 0.04 0.04 0.05 0.07 0.06 0.06 0.07 0.08 0.10 0.11 0.09 0.07 0.06 0.06 0.05 0.04 0.04 0.04 0.03
0.01 0.01 0.01 0.01 0.02 0.02 0.02 0.03 0.02 0.02 0.02 0.03 0.03 0.02 0.03 0.02 0.02 0.01 0.01 0.01 0.02 0.03 0.03 0.04 0.03 0.03 0.03 0.03 0.04 0.04 0.05 0.07 0.09 0.10 0.10 0.09 0.08 0.08 0.06 0.04 0.04 0.04 0.03
0.01 0.01 0.01 0.02 0.02 0.01 0.03 0.04 0.03 0.03 0.03 0.03 0.03 0.04 0.07 0.05 0.02 0.01 0.01 0.01 0.02 0.03 0.03 0.03 0.04 0.05 0.04 0.04 0.04 0.04 0.05 0.05 0.05 0.07 0.08 0.07 0.06 0.05 0.05 0.05 0.04 0.05 0.05
0.01 0.02 0.02 0.02 0.02 0.01 0.03 0.03 0.03 0.03 0.03 0.03 0.04 0.05 0.07 0.06 0.04 0.03 0.02 0.02 0.02 0.02 0.02 0.02 0.03 0.04 0.03 0.04 0.04 0.04 0.05 0.05 0.04 0.05 0.05 0.06 0.06 0.05 0.05 0.06 0.06 0.07 0.07
0.01 0.02 0.02 0.03 0.02 0.02 0.03 0.03 0.02 0.02 0.02 0.02 0.03 0.04 0.06 0.06 0.05 0.04 0.04 0.04 0.04 0.03 0.03 0.03 0.03 0.03 0.03 0.03 0.02 0.03 0.03 0.03 0.05 0.04 0.04 0.05 0.07 0.07 0.07 0.07 0.08 0.09 0.08
0.01 0.01 0.02 0.02 0.02 0.02 0.02 0.02 0.01 0.01 0.01 0.02 0.02 0.03 0.05 0.05 0.04 0.03 0.03 0.03 0.04 0.05 0.04 0.04 0.04 0.04 0.04 0.04 0.04 0.04 0.04 0.05 0.06 0.07 0.08 0.07 0.08 0.09 0.09 0.10 0.11 0.12 0.12
0.02 0.01 0.01 0.01 0.01 0.01 0.01 0.02 0.02 0.01 0.01 0.01 0.01 0.02 0.03 0.03 0.03 0.03 0.03 0.04 0.05 0.06 0.06 0.05 0.05 0.05 0.05 0.05 0.05 0.05 0.05 0.06 0.07 0.09 0.10 0.10 0.11 0.12 0.12 0.12 0.13 0.13 0.12
0.02 0.01 0.01 0.01 0.01 0.01 0.01 0.01 0.02 0.02 0.01 0.02 0.02 0.02 0.03 0.03 0.03 0.04 0.05 0.05 0.05 0.05 0.05 0.06 0.06 0.06 0.05 0.05 0.06 0.06 0.06 0.06 0.08 0.10 0.11 0.11 0.12 0.13 0.16 0.17 0.18 0.15 0.12
0.02 0.02 0.02 0.02 0.02 0.02 0.01 0.01 0.02 0.02 0.03 0.03 0.04 0.04 0.05 0.05 0.04 0.04 0.04 0.04 0.04 0.04 0.04 0.05 0.05 0.05 0.05 0.05 0.06 0.06 0.06 0.07 0.08 0.08 0.09 0.10 0.11 0.12 0.14 0.14 0.16 0.18 0.17
0.02 0.02 0.02 0.02 0.03 0.03 0.02 0.02 0.02 0.03 0.04 0.06 0.05 0.06 0.07 0.08 0.08 0.07 0.05 0.04 0.05 0.05 0.06 0.06 0.05 0.05 0.05 0.06 0.06 0.06 0.06 0.06 0.06 0.07 0.08 0.09 0.10 0.11 0.12 0.13 0.12 0.14 0.16
0.04 0.03 0.03 0.03 0.04 0.04 0.03 0.03 0.03 0.03 0.05 0.07 0.07 0.07 0.07 0.07 0.07 0.07 0.06 0.05 0.07 0.07 0.07 0.07 0.07 0.07 0.06 0.06 0.07 0.07 0.06 0.05 0.07 0.09 0.10 0.09 0.09 0.10 0.10 0.12 0.11 0.11 0.10
0.05 0.06 0.05 0.03 0.03 0.04 0.04 0.03 0.03 0.04 0.05 0.06 0.07 0.08 0.08 0.07 0.07 0.08 0.08 0.07 0.08 0.09 0.07 0.06 0.06 0.07 0.08 0.08 0.08 0.08 0.08 0.09 0.09 0.08 0.09 0.09 0.09 0.08 0.07 0.09 0.10 0.09 0.08
0.05 0.08 0.06 0.05 0.04 0.04 0.03 0.03 0.03 0.03 0.04 0.05 0.06 0.06 0.07 0.06 0.07 0.06 0.05 0.05 0.08 0.08 0.08 0.07 0.06 0.06 0.07 0.08 0.08 0.08 0.08 0.07 0.07 0.07 0.07 0.08 0.09 0.08 0.08 0.08 0.08 0.08 0.08
0.04 0.05 0.06 0.06 0.06 0.05 0.04 0.03 0.02 0.02 0.02 0.03 0.03 0.04 0.04 0.04 0.03 0.03 0.02 0.03 0.04 0.05 0.06 0.05 0.05 0.06 0.07 0.06 0.07 0.07 0.06 0.05 0.05 0.05 0.06 0.07 0.08 0.08 0.08 0.08 0.07 0.06 0.07
0.02 0.02 0.03 0.05 0.06 0.05 0.04 0.03 0.02 0.02 0.02 0.02 0.03 0.03 0.03 0.03 0.02 0.02 0.02 0.02 0.03 0.04 0.04 0.04 0.05 0.06 0.07 0.05 0.05 0.05 0.05 0.04 0.04 0.04 0.05 0.06 0.07 0.08 0.08 0.08 0.07 0.05 0.06
0.02 0.02 0.02 0.02 0.03 0.04 0.04 0.03 0.03 0.02 0.02 0.02 0.02 0.02 0.02 0.02 0.02 0.02 0.02 0.02 0.03 0.03 0.04 0.04 0.04 0.03 0.03 0.03 0.04 0.05 0.05 0.05 0.04 0.03 0.03 0.03 0.05 0.05 0.07 0.07 0.06 0.05 0.05
0.02 0.03 0.03 0.02 0.02 0.02 0.02 0.03 0.03 0.03 0.03 0.02 0.02 0.02 0.02 0.02 0.02 0.02 0.02 0.02 0.02 0.02 0.02 0.02 0.02 0.02 0.02 0.03 0.04 0.04 0.04 0.03 0.03 0.03 0.03 0.02 0.03 0.04 0.05 0.05 0.04 0.04 0.04
MSLP
1011.59 1011.52 1011.44 1011.31 1011.09 1010.79 1010.38 1009.91 1009.38 1008.85 1008.34 1007.87 1007.44 1007.06 1006.71 1006.38 1006.05 1005.74 1005.43 1005.15 1004.91 1004.73 1004.63 1004.60 1004.65 1004.77 1004.95 1005.14 1005.34 1005.53 1005.70 1005.85 1005.98 1006.11 1006.25 1006.43 1006.64 1006.92 1007.26 1007.66 1008.13 1008.66 1009.23
1011.88 1011.81 1011.74 1011.62 1011.42 1011.13 1010.75 1010.28 1009.77 1009.24 1008.71 1008.22 1007.77 1007.35 1006.96 1006.58 1006.21 1005.83 1005.45 1005.07 1004.71 1004.40 1004.15 1003.96 1003.87 1003.85 1003.91 1004.03 1004.20 1004.41 1004.63 1004.87 1005.11 1005.36 1005.61 1005.89 1006.18 1006.51 1006.89 1007.31 1007.77 1008.28 1008.83
1012.13 1012.05 1011.96 1011.83 1011.63 1011.34 1010.97 1010.52 1010.02 1009.49 1008.98 1008.49 1008.03 1007.61 1007.20 1006.81 1006.40 1005.98 1005.53 1005.07 1004.59 1004.15 1003.73 1003.39 1003.12 1002.95 1002.89 1002.92 1003.04 1003.25 1003.51 1003.83 1004.17 1004.53 1004.90 1005.28 1005.67 1006.06 1006.48 1006.92 1007.39 1007.88 1008.40
1012.29 1012.17 1012.04 1011.88 1011.65 1011.35 1010.97 1010.53 1010.04 1009.54 1009.05 1008.57 1008.13 1007.72 1007.33 1006.93 1006.51 1006.06 1005.57 1005.03 1004.46 1003.89 1003.34 1002.84 1002.42 1002.11 1001.91 1001.85 1001.92 1002.11 1002.39 1002.76 1003.18 1003.64 1004.11 1004.58 1005.05 1005.50 1005.96 1006.41 1006.88 1007.36 1007.85
1012.35 1012.16 1011.97 1011.74 1011.47 1011.13 1010.73 1010.28 1009.81 1009.32 1008.85 1008.41 1008.00 1007.61 1007.24 1006.85 1006.44 1005.97 1005.45 1004.86 1004.22 1003.56 1002.91 1002.29 1001.75 1001.31 1001.01 1000.87 1000.88 1001.03 1001.32 1001.71 1002.18 1002.70 1003.24 1003.77 1004.29 1004.79 1005.27 1005.74 1006.20 1006.67 1007.13
1012.30 1012.02 1011.75 1011.44 1011.10 1010.71 1010.28 1009.82 1009.34 1008.87 1008.43 1008.01 1007.62 1007.26 1006.89 1006.52 1006.10 1005.63 1005.09 1004.47 1003.80 1003.09 1002.37 1001.68 1001.07 1000.56 1000.19 999.97 999.93 1000.06 1000.33 1000.72 1001.21 1001.74 1002.31 1002.87 1003.41 1003.93 1004.42 1004.89 1005.35 1005.79 1006.24
1012.17 1011.80 1011.43 1011.04 1010.63 1010.18 1009.71 1009.22 1008.74 1008.27 1007.84 1007.43 1007.04 1006.68 1006.32 1005.94 1005.51 1005.03 1004.48 1003.85 1003.17 1002.44 1001.71 1001.00 1000.36 999.82 999.42 999.18 999.11 999.20 999.44 999.81 1000.27 1000.80 1001.35 1001.91 1002.45 1002.96 1003.45 1003.91 1004.36 1004.80 1005.24
1012.01 1011.56 1011.11 1010.64 1010.15 1009.65 1009.15 1008.64 1008.14 1007.67 1007.21 1006.79 1006.39 1006.00 1005.60 1005.19 1004.73 1004.23 1003.66 1003.03 1002.34 1001.63 1000.91 1000.23 999.61 999.09 998.69 998.45 998.37 998.44 998.65 998.98 999.40 999.89 1000.41 1000.93 1001.44 1001.94 1002.41 1002.87 1003.33 1003.77 1004.21
1011.88 1011.37 1010.85 1010.33 1009.79 1009.26 1008.73 1008.20 1007.68 1007.19 1006.71 1006.25 1005.80 1005.35 1004.89 1004.40 1003.89 1003.33 1002.72 1002.07 1001.40 1000.71 1000.04 999.40 998.83 998.36 998.00 997.78 997.70 997.75 997.93 998.22 998.59 999.03 999.49 999.97 1000.45 1000.93 1001.41 1001.87 1002.33 1002.80 1003.27
1011.82 1011.27 1010.72 1010.17 1009.61 1009.06 1008.52 1007.98 1007.46 1006.94 1006.43 1005.91 1005.39 1004.85 1004.30 1003.72 1003.11 1002.47 1001.81 1001.13 1000.45 999.79 999.15 998.57 998.07 997.65 997.34 997.15 997.07 997.12 997.27 997.51 997.83 998.21 998.62 999.06 999.52 999.99 1000.47 1000.95 1001.45 1001.95 1002.47
1011.83 1011.27 1010.71 1010.15 1009.60 1009.06 1008.53 1008.01 1007.48 1006.95 1006.41 1005.83 1005.23 1004.60 1003.93 1003.24 1002.52 1001.79 1001.05 1000.32 999.62 998.96 998.36 997.82 997.36 996.99 996.72 996.55 996.48 996.51 996.62 996.82 997.09 997.41 997.78 998.19 998.63 999.11 999.61 1000.13 1000.67 1001.23 1001.80
1011.88 1011.32 1010.77 1010.24 1009.71 1009.21 1008.71 1008.21 1007.70 1007.17 1006.61 1005.99 1005.32 1004.60 1003.83 1003.02 1002.19 1001.36 1000.54 999.75 999.01 998.34 997.74 997.23 996.79 996.45 996.19 996.02 995.94 995.93 996.00 996.14 996.35 996.62 996.95 997.33 997.77 998.26 998.79 999.36 999.96 1000.58 1001.20
1011.92 1011.38 1010.85 1010.33 1009.85 1009.39 1008.93 1008.48 1008.01 1007.50 1006.93 1006.30 1005.59 1004.81 1003.96 1003.07 1002.15 1001.23 1000.33 999.49 998.71 998.01 997.39 996.87 996.43 996.08 995.81 995.61 995.48 995.42 995.42 995.49 995.63 995.83 996.11 996.47 996.90 997.40 997.97 998.58 999.24 999.91 1000.59
1011.91 1011.37 1010.85 1010.37 1009.92 1009.50 1009.10 1008.70 1008.28 1007.81 1007.27 1006.65 1005.94 1005.13 1004.25 1003.31 1002.34 1001.37 1000.43 999.55 998.73 998.01 997.37 996.83 996.36 995.97 995.65 995.39 995.19 995.03 994.94 994.91 994.95 995.07 995.29 995.60 996.00 996.50 997.09 997.73 998.43 999.16 999.89
1011.82 1011.27 1010.75 1010.27 1009.85 1009.47 1009.12 1008.77 1008.41 1008.00 1007.51 1006.94 1006.26 1005.48 1004.61 1003.69 1002.72 1001.75 1000.80 999.91 999.09 998.35 997.70 997.12 996.62 996.18 995.79 995.43 995.13 994.86 994.64 994.48 994.39 994.40 994.52 994.75 995.10 995.57 996.14 996.79 997.51 998.27 999.04
1011.66 1011.08 1010.55 1010.07 1009.65 1009.29 1008.98 1008.68 1008.37 1008.03 1007.61 1007.10 1006.49 1005.78 1004.98 1004.11 1003.20 1002.28 1001.38 1000.52 999.73 999.00 998.35 997.76 997.22 996.72 996.25 995.80 995.37 994.96 994.59 994.28 994.04 993.90 993.89 994.00 994.26 994.66 995.18 995.81 996.53 997.29 998.07
1011.48 1010.86 1010.29 1009.80 1009.38 1009.03 1008.73 1008.47 1008.21 1007.92 1007.57 1007.14 1006.61 1005.99 1005.29 1004.51 1003.70 1002.88 1002.07 1001.29 1000.56 999.89 999.26 998.68 998.13 997.59 997.04 996.50 995.94 995.39 994.87 994.39 993.97 993.66 993.49 993.45 993.58 993.87 994.31 994.89 995.57 996.31 997.10
1011.33 1010.67 1010.08 1009.56 1009.12 1008.77 1008.48 1008.23 1008.00 1007.75 1007.45 1007.09 1006.65 1006.12 1005.52 1004.87 1004.17 1003.47 1002.78 1002.11 1001.48 1000.89 1000.33 999.79 999.25 998.69 998.11 997.49 996.83 996.15 995.48 994.83 994.25 993.76 993.40 993.21 993.18 993.34 993.67 994.15 994.77 995.49 996.26
1011.26 1010.59 1009.97 1009.43 1008.98 1008.61 1008.31 1008.05 1007.83 1007.59 1007.33 1007.01 1006.63 1006.19 1005.69 1005.15 1004.57 1004.00 1003.44 1002.90 1002.39 1001.91 1001.45 1000.97 1000.48 999.94 999.35 998.69 997.97 997.20 996.40 995.62 994.87 994.22 993.69 993.33 993.14 993.15 993.35 993.74 994.28 994.94 995.69
1011.31 1010.63 1010.01 1009.46 1008.99 1008.60 1008.28 1008.01 1007.76 1007.51 1007.25 1006.95 1006.61 1006.22 1005.79 1005.34 1004.87 1004.42 1003.98 1003.57 1003.19 1002.83 1002.48 1002.10 1001.69 1001.20 1000.64 999.99 999.24 998.43 997.55 996.67 995.81 995.02 994.35 993.83 993.50 993.37 993.45 993.72 994.17 994.76 995.46
1011.44 1010.79 1010.18 1009.63 1009.16 1008.75 1008.39 1008.08 1007.80 1007.52 1007.23 1006.92 1006.57 1006.21 1005.82 1005.43 1005.05 1004.69 1004.36 1004.07 1003.81 1003.57 1003.33 1003.07 1002.75 1002.35 1001.85 1001.24 1000.52 999.71 998.82 997.89 996.96 996.09 995.31 994.69 994.23 993.98 993.93 994.10 994.45 994.96 995.60
1011.61 1011.00 1010.42 1009.89 1009.40 1008.97 1008.58 1008.23 1007.89 1007.56 1007.23 1006.88 1006.51 1006.14 1005.77 1005.42 1005.09 1004.80 1004.56 1004.37 1004.21 1004.08 1003.95 1003.79 1003.58 1003.28 1002.87 1002.34 1001.69 1000.91 1000.05 999.13 998.20 997.29 996.47 995.77 995.24 994.89 994.75 994.81 995.06 995.47 996.03
1011.75 1011.18 1010.63 1010.11 1009.62 1009.17 1008.74 1008.33 1007.95 1007.56 1007.17 1006.77 1006.38 1006.00 1005.63 1005.29 1005.00 1004.77 1004.59 1004.47 1004.40 1004.35 1004.32 1004.25 1004.14 1003.94 1003.63 1003.19 1002.63 1001.94 1001.15 1000.29 999.39 998.51 997.68 996.96 996.38 995.97 995.75 995.72 995.87 996.18 996.64
1011.79 1011.25 1010.72 1010.21 1009.71 1009.23 1008.77 1008.32 1007.88 1007.44 1007.01 1006.58 1006.16 1005.77 1005.41 1005.09 1004.83 1004.64 1004.51 1004.44 1004.43 1004.45 1004.48 1004.49 1004.45 1004.34 1004.12 1003.78 1003.31 1002.72 1002.03 1001.25 1000.43 999.61 998.82 998.11 997.52 997.07 996.79 996.67 996.73 996.93 997.26
1011.69 1011.18 1010.65 1010.13 1009.62 1009.11 1008.61 1008.13 1007.65 1007.18 1006.73 1006.29 1005.87 1005.49 1005.15 1004.87 1004.64 1004.49 1004.40 1004.38 1004.41 1004.47 1004.54 1004.59 1004.61 1004.55 1004.40 1004.13 1003.76 1003.27 1002.67 1002.00 1001.27 1000.53 999.80 999.13 998.55 998.08 997.75 997.56 997.51 997.59 997.79
1011.47 1010.96 1010.43 1009.89 1009.35 1008.82 1008.30 1007.79 1007.30 1006.82 1006.37 1005.95 1005.57 1005.22 1004.93 1004.69 1004.52 1004.41 1004.37 1004.37 1004.42 1004.50 1004.58 1004.65 1004.68 1004.65 1004.53 1004.33 1004.02 1003.61 1003.11 1002.54 1001.91 1001.25 1000.59 999.97 999.41 998.94 998.57 998.31 998.16 998.12 998.19
Thickness
5790 5787 5784 5782 5780 5778 5775 5773 5772 5771 5769 5768 5766 5764 5763 5762 5761 5760 5758 5757 5755 5754 5753 5752 5750 5750 5750 5750 5750 5749 5747 5744 5738 5741 5745 5746 5745 5744 5742 5741 5741 5738 5735
5789 5786 5781 5779 5776 5774 5772 5770 5769 5767 5765 5764 5762 5760 5759 5758 5757 5755 5754 5754 5751 5749 5748 5748 5747 5747 5745 5745 5744 5744 5744 5742 5738 5735 5738 5740 5740 5741 5740 5738 5739 5738 5736
5787 5783 5778 5775 5772 5769 5768 5767 5765 5763 5761 5760 5758 5755 5754 5753 5752 5751 5750 5749 5748 5747 5746 5744 5743 5742 5740 5740 5740 5739 5739 5739 5737 5733 5733 5735 5736 5737 5735 5735 5736 5735 5734
5784 5779 5774 5771 5768 5766 5765 5763 5761 5759 5757 5755 5754 5752 5751 5749 5748 5746 5745 5744 5744 5744 5743 5742 5741 5739 5736 5736 5735 5734 5734 5732 5731 5730 5729 5729 5730 5731 5730 5727 5727 5728 5728
5779 5775 5771 5769 5766 5763 5761 5759 5757 5755 5753 5751 5749 5748 5747 5745 5743 5741 5739 5739 5738 5738 5738 5738 5737 5736 5734 5732 5731 5729 5728 5726 5725 5724 5723 5723 5723 5722 5722 5723 5720 5722 5723
5774 5770 5767 5764 5760 5757 5755 5753 5751 5749 5748 5746 5744 5742 5741 5740 5737 5734 5732 5732 5732 5732 5731 5732 5732 5731 5730 5728 5727 5725 5723 5721 5719 5717 5718 5717 5717 5719 5719 5718 5715 5713 5713
5767 5763 5760 5757 5754 5752 5751 5747 5745 5743 5741 5739 5738 5736 5734 5732 5730 5728 5726 5725 5725 5725 5725 5724 5726 5728 5725 5723 5722 5721 5719 5717 5715 5714 5712 5713 5714 5715 5714 5712 5711 5709 5710
5760 5756 5753 5750 5747 5746 5743 5741 5739 5737 5734 5733 5732 5731 5729 5727 5724 5722 5720 5719 5719 5719 5719 5719 5718 5718 5719 5717 5716 5715 5714 5714 5712 5710 5710 5711 5713 5713 5712 5710 5708 5707 5709
5752 5749 5747 5743 5741 5738 5736 5734 5733 5730 5728 5727 5727 5725 5723 5721 5717 5715 5712 5712 5711 5711 5712 5712 5712 5711 5711 5709 5708 5707 5707 5708 5709 5708 5708 5707 5707 5708 5707 5704 5702 5699 5699
5746 5744 5742 5739 5735 5732 5730 5728 5727 5725 5723 5722 5721 5720 5718 5715 5712 5708 5705 5705 5704 5703 5704 5704 5703 5703 5702 5701 5700 5699 5699 5700 5701 5702 5701 5702 5702 5702 5701 5699 5697 5694 5693
5740 5739 5736 5733 5730 5728 5724 5722 5720 5718 5716 5715 5714 5713 5712 5710 5706 5702 5699 5697 5696 5696 5696 5696 5696 5695 5694 5693 5692 5693 5694 5694 5694 5695 5695 5696 5696 5696 5696 5695 5694 5692 5689
5733 5731 5729 5726 5725 5723 5718 5716 5714 5711 5709 5708 5706 5705 5705 5704 5701 5696 5692 5689 5688 5687 5688 5689 5688 5686 5685 5685 5685 5686 5686 5685 5686 5686 5687 5688 5689 5690 5691 5691 5691 5690 5690
5724 5722 5721 5720 5718 5716 5712 5709 5707 5704 5702 5700 5699 5697 5696 5696 5693 5689 5685 5682 5680 5679 5680 5680 5679 5678 5677 5677 5678 5678 5678 5677 5678 5678 5679 5681 5684 5685 5686 5685 5686 5685 5685
5716 5715 5714 5712 5711 5709 5706 5703 5699 5696 5693 5692 5690 5688 5687 5686 5683 5680 5678 5674 5672 5671 5671 5671 5671 5670 5669 5670 5671 5671 5670 5671 5671 5671 5673 5675 5677 5677 5677 5678 5676 5676 5674
5708 5707 5706 5706 5703 5701 5698 5695 5692 5689 5685 5681 5681 5679 5677 5675 5672 5669 5667 5666 5664 5663 5661 5662 5663 5664 5663 5663 5664 5665 5665 5665 5664 5664 5665 5666 5667 5667 5668 5669 5669 5668 5666
5699 5699 5699 5698 5696 5694 5691 5687 5684 5681 5678 5675 5672 5670 5669 5666 5663 5660 5659 5657 5655 5653 5651 5653 5654 5655 5655 5656 5656 5656 5657 5657 5658 5658 5657 5657 5658 5658 5659 5660 5660 5659 5658
5691 5690 5690 5689 5688 5686 5684 5680 5676 5673 5670 5667 5664 5662 5659 5656 5654 5652 5650 5649 5648 5645 5644 5646 5646 5646 5646 5646 5646 5646 5647 5648 5649 5649 5648 5649 5649 5649 5650 5650 5649 5649 5649
5685 5683 5681 5680 5679 5678 5675 5673 5670 5666 5663 5661 5658 5654 5651 5649 5646 5644 5642 5641 5642 5640 5640 5639 5638 5638 5637 5637 5637 5637 5637 5638 5639 5639 5639 5640 5640 5640 5640 5640 5640 5639 5639
5678 5677 5675 5673 5672 5670 5668 5665 5662 5659 5656 5654 5652 5647 5643 5641 5639 5636 5634 5634 5634 5633 5633 5632 5631 5630 5629 5628 5628 5628 5628 5629 5629 5629 5630 5630 5631 5631 5630 5631 5631 5631 5630
5670 5668 5667 5666 5664 5662 5660 5657 5654 5651 5648 5646 5642 5640 5636 5634 5633 5630 5627 5627 5626 5625 5624 5624 5623 5622 5621 5620 5619 5619 5619 5620 5620 5620 5620 5621 5621 5621 5621 5621 5622 5622 5622
5664 5662 5659 5659 5657 5654 5651 5649 5645 5643 5640 5638 5635 5632 5627 5627 5626 5624 5621 5619 5617 5617 5616 5616 5615 5614 5612 5611 5609 5608 5608 5608 5608 5608 5608 5609 5610 5611 5611 5612 5613 5613 5613
5657 5656 5654 5652 5650 5647 5644 5641 5638 5636 5633 5631 5629 5626 5621 5619 5618 5616 5614 5613 5611 5610 5609 5608 5606 5605 5602 5601 5599 5598 5596 5596 5596 5596 5596 5597 5599 5600 5601 5602 5602 5603 5603
5649 5649 5647 5645 5642 5638 5636 5634 5631 5629 5626 5624 5622 5618 5615 5612 5610 5608 5606 5605 5604 5602 5600 5599 5598 5596 5594 5591 5590 5587 5584 5583 5582 5584 5585 5587 5588 5590 5591 5592 5592 5593 5593
5643 5643 5641 5637 5634 5632 5629 5626 5623 5621 5618 5616 5613 5610 5607 5604 5602 5601 5599 5598 5596 5594 5592 5590 5588 5586 5584 5581 5579 5577 5574 5573 5572 5574 5575 5576 5579 5581 5582 5583 5584 5584 5584
5637 5635 5632 5629 5626 5623 5620 5617 5614 5612 5610 5607 5604 5602 5599 5597 5595 5593 5592 5590 5588 5586 5584 5581 5579 5577 5574 5572 5569 5567 5564 5564 5564 5564 5565 5567 5569 5571 5572 5574 5575 5575 5575
5629 5627 5624 5621 5618 5614 5611 5608 5605 5603 5600 5598 5595 5592 5590 5588 5586 5584 5583 5581 5580 5578 5575 5573 5571 5568 5566 5563 5560 5558 5556 5555 5555 5555 5556 5559 5561 5562 5563 5564 5565 5566 5566